Regional Weather Roundup
Issued by NWS Cleveland, OH

Home | Current Version | Previous Version | Graphics & Text | Print | Product List | Glossary On
Versions: 1 2 3 4 5 6 7 8 9 10 11 12 13 14 15 16 17 18 19 20 21 22 23 24 25 26 27 28 29 30 31 32 33 34 35 36 37 38 39 40 41 42 43 44 45 46 47 48 49 50
000
ASUS41 KCLE 261910
RWRCLE
OHIO REGIONAL WEATHER ROUNDUP
NATIONAL WEATHER SERVICE WILMINGTON, OH
200 PM EST THU FEB 26 2015

NOTE: "FAIR" INDICATES FEW OR NO CLOUDS BELOW 12,000 FEET WITH NO
SIGNIFICANT WEATHER AND/OR OBSTRUCTIONS TO VISIBILITY.

OHZ001>008-015>018-024>027-034-035-043-044-262000-
   NORTHWEST OHIO

CITY           SKY/WX    TMP DP  RH WIND       PRES   REMARKS
DEFIANCE       PTSUNNY   15   4  61 NE8       30.16S WCI   4
FINDLAY        PTSUNNY   15   5  64 N17       30.11S WCI  -1
TOLEDO EXPRESS CLOUDY    14   5  67 NW8       30.14F HAZE    WCI   3
TOLEDO EXEC    SUNNY     16   5  62 N7        30.16F WCI   6
LIMA           CLOUDY    14   5  67 N14       30.10S WCI  -1
$$

OHZ009>014-019>023-028>033-038-089-262000-
   NORTHEAST OHIO

CITY           SKY/WX    TMP DP  RH WIND       PRES   REMARKS
CLE-HOPKINS    LGT SNOW  13   7  77 N20       30.13R BLWGSNOWWCI  -5
CLE-LAKEFRONT  LGT SNOW  15   8  73 N14       30.12R WCI   0
CUY CO. ARPT   LGT SNOW  16  10  79 NE12G23   30.09R VSB 3/4 WCI   3
LORAIN-ELYRIA  LGT SNOW  12   6  77 NE15      30.11R VSB 1   WCI  -4
ASHTABULA      LGT SNOW  12   4  70 N10       30.05F WCI  -1
AKRON-CANTON   LGT SNOW  15   7  70 N14       30.00S WCI   0
WOOSTER        LGT SNOW  13   7  77 N18       30.04R WCI  -4
MANSFIELD      CLOUDY    13   5  70 N16G22    30.03S HAZE    WCI  -3
YOUNGSTOWN     LGT SNOW  13   6  74 N16       29.99F VSB 1   WCI  -3
$$

OHZ042-051>053-060>062-070>072-077>081-262000-
  SOUTHWEST OHIO

CITY           SKY/WX    TMP DP  RH WIND       PRES   REMARKS
CINC-COVINGTON PTSUNNY   24  13  62 NW12      30.06S WCI  13
CINC-LUNKEN    MOSUNNY   24  13  62 N7        30.10S WCI  16
HAMILTON       MOSUNNY   21  11  65 N9        30.11R WCI  11
DAYTON         PTSUNNY   18   8  65 N12       30.09R WCI   5
WRIGHT-PAT AFB PTSUNNY   17   7  63 N10       30.08S WCI   5
DAYTON GENERAL CLOUDY    20  10  65 N9        30.06S WCI   9
WILMINGTON     PTSUNNY   18  10  71 N9        30.04S WCI   7
$$

OHZ036-037-039>041-045>050-054>059-063>069-073>076-082>088-262000-
  CENTRAL AND SOUTHEAST OHIO

CITY           SKY/WX    TMP DP  RH WIND       PRES   REMARKS
COLUMBUS       FLURRIES  17   8  67 N14       30.05S WCI   3
OSU AIRPORT    FLURRIES  15   7  70 N12       30.04F WCI   2
BOLTON FIELD   MOSUNNY   18   9  68 N10       30.05F WCI   6
RICKENBACK AFB PTSUNNY   18  10  70 N14       30.05S WCI   4
NEWARK         CLOUDY    20  10  65 N6        30.03R WCI  12
MARION         CLOUDY    14   7  73 NE18      30.07S HAZE    WCI  -3
LANCASTER      CLOUDY    20  12  71 N13       30.03S WCI   7
ZANESVILLE     CLOUDY    20   9  62 NW12      30.00F WCI   8
NEW PHILLY     LGT SNOW  19  10  68 NW10      30.02S WCI   7
$$


USA.gov is the U.S. government's official web portal to all federal, state and local government web resources and services.